Location: Newark
(45.2500°N, 7.5833°E)
Time: 13:40:53
(UTC+00:00)

Vanguard 3 - Pass Details

Date: 30 January 2020
Orbit: 508 x 3263 km, 33.3° (Epoch: 24 February)

Event Time Altitude Azimuth Distance (km) Brightness Sun altitude
Rises 20:43:16 0° 276° (W) 7,233 12.7 -43.6°
Reaches altitude 10° 20:48:53 10° 270° (W) 6,129 12.1 -44.6°
Maximum altitude 21:04:34 35° 214° (SW) 3,682 10.3 -47.1°
Enters shadow 21:05:54 35° 205° (SSW) 3,613 10.2 -47.3°
Drops below altitude 10° 21:15:42 10° 154° (SSE) 4,349 - -48.8°
Sets 21:18:56 0° 146° (SE) 4,987 - -49.3°
